sat.trackr.live / text

‹ back to catalog

STARLINK-31182

NORAD 59159 · 2024-044H

PAYLOAD ACTIVE UNKNOWN

§ Identity

Operator
Country
US
Launch date
2024-03-04
Launch site
AFETR
Launch vehicle
Mass (kg)
RCS (m²)

Purposes: comms

External: N2YO · Heavens-Above · Gunter

§ Orbital elements

Epoch: 2026-05-24T18:14:10.411872Z

Period
94.27 min
Inclination
43.0039°
Eccentricity
0.0001023
Mean motion
15.27577661 rev/d
Perigee alt
482.4 km
Apogee alt
483.8 km
Semi-major
6,861.2 km
B*
1.1796e-5
RAAN
37.0710°
Arg perigee
257.4197°
Mean anomaly
102.6540°
Rev number
12,523

§ Raw data

STARLINK-311821 59159U 24044H   26144.75984273  .00000063  00000+0  11796-4 0  99912 59159  43.0039  37.0710 0001023 257.4197 102.6540 15.27577661125237

JSON: /api/v1/satellites/59159 · /tle

For live sub-satellite position, see the globe view (requires WebGL).

§ Visibility from observer

Set your observer location to see the next 7 days of passes ≥ 10°. The values pass through the URL so the page stays shareable.

No JS? Fill the form by hand. The geolocation button needs JavaScript.